Weather History for Columbus AFB, MS

Change the Weather History Date:

Monday, November 26, 2012

  Actual Average Record
Temperature  
Mean Temperature 46 °F -  
Max Temperature 59 °F 60 °F 75 °F (2011)
Min Temperature 33 °F 39 °F 28 °F (2010)
Degree Days  
Heating Degree Days 19    
Moisture  
Dew Point 49 °F    
Average Humidity 84    
Maximum Humidity 96    
Minimum Humidity 69    
Precipitation  
Precipitation 0.04 in - - ()
Sea Level Pressure  
Sea Level Pressure 30.12 in    
Wind  
Wind Speed 3 mph (South)    
Max Wind Speed 10 mph    
Max Gust Speed -    
Visibility 10 miles    
Events Rain    
Averages and records for this station are not official NWS values.
T = Trace of Precipitation, MM = Missing Value Source: NWS Daily Summary

Daily Weather History Graph

Daily Weather History Graph

Search for Another Location

Airport:

Trip Planner

Search our weather history database for the weather conditions in past years. The results will help you decide how hot, cold, wet, or windy it might be!

Date:

Astronomy

Nov. 26, 2012 Rise Set
Actual Time 6:36 AM CST 4:46 PM CST
Civil Twilight 6:09 AM CST 5:13 PM CST
Nautical Twilight 5:38 AM CST 5:43 PM CST
Astronomical Twilight 5:08 AM CST 6:13 PM CST
Moon 3:36 PM CST (11/26) 4:49 AM CST (11/26)
Length of Visible Light 11h 03m
Length of Day
10h 09m
Waxing Gibbous, 97% of the Moon is Illuminated
Nov 26
Waxing Gibbous
Nov 28
Full
Dec 6
Last Quarter
Dec 13
New
Dec 19
First Quarter

Hourly Weather History & Observations

Time (CST) Temp. Windchill Dew Point Humidity Pressure Visibility Wind Dir Wind Speed Gust Speed Precip Events Conditions
12:55 AM 35.6 °F - 30.9 °F 83% 30.11 in 10.0 mi Calm Calm - N/A   Clear
1:55 AM 33.1 °F 28.7 °F 28.8 °F 84% 30.12 in 10.0 mi SE 4.6 mph - N/A   Clear
2:55 AM 34.2 °F - 29.7 °F 84% 30.13 in 10.0 mi Calm Calm - N/A   Clear
3:55 AM 34.2 °F 31.2 °F 30.7 °F 87% 30.13 in 10.0 mi East 3.5 mph - N/A   Clear
4:55 AM 33.4 °F - 29.7 °F 86% 30.14 in 10.0 mi Calm Calm - N/A   Mostly Cloudy
5:55 AM 40.1 °F 36.1 °F 34.5 °F 80% 30.15 in 10.0 mi SE 5.8 mph - N/A   Overcast
6:55 AM 41.0 °F 38.0 °F 36.0 °F 82% 30.16 in 10.0 mi SE 4.6 mph - N/A   Overcast
7:55 AM 44.2 °F 40.3 °F 37.9 °F 79% 30.17 in 10.0 mi SE 6.9 mph - N/A   Mostly Cloudy
8:38 AM 44.2 °F 39.2 °F 37.9 °F 79% 30.17 in 10.0 mi SE 9.2 mph - N/A Rain Light Rain
8:48 AM 46.4 °F 42.4 °F 39.2 °F 76% 30.18 in 10.0 mi SSE 8.1 mph - N/A   Scattered Clouds
8:55 AM 46.8 °F - 39.9 °F 77% 30.17 in 10.0 mi SE 10.4 mph - 0.00 in   Scattered Clouds
9:55 AM 48.9 °F - 41.4 °F 75% 30.21 in 10.0 mi West 3.5 mph - N/A   Overcast
10:55 AM 54.3 °F - 44.2 °F 69% 30.17 in 10.0 mi SSE 6.9 mph - N/A   Mostly Cloudy
11:46 AM 53.6 °F - 44.6 °F 72% 30.16 in 10.0 mi SSW 9.2 mph - N/A Rain Light Rain
11:55 AM 53.1 °F - 47.1 °F 80% 30.14 in 8.0 mi South 5.8 mph - 0.00 in Rain Light Rain
12:03 PM 53.6 °F - 46.4 °F 77% 30.14 in 10.0 mi Calm Calm - N/A   Mostly Cloudy
12:10 PM 53.6 °F - 46.4 °F 77% 30.14 in 10.0 mi South 3.5 mph - N/A Rain Light Rain
12:31 PM 53.6 °F - 48.2 °F 82% 30.13 in 10.0 mi SSE 3.5 mph - N/A   Mostly Cloudy
12:32 PM 53.6 °F - 48.2 °F 82% 30.13 in 10.0 mi SE 3.5 mph - N/A   Mostly Cloudy
12:55 PM 54.9 °F - 47.1 °F 75% 30.12 in 10.0 mi SSE 3.5 mph - 0.00 in   Mostly Cloudy
1:55 PM 56.7 °F - 47.8 °F 72% 30.10 in 10.0 mi Calm Calm - N/A   Mostly Cloudy
1:57 PM 57.2 °F - 48.2 °F 72% 30.10 in 10.0 mi Calm Calm - N/A   Mostly Cloudy
2:12 PM 57.2 °F - 48.2 °F 72% 30.10 in 10.0 mi SSE 3.5 mph - N/A Rain Light Rain
2:21 PM 57.2 °F - 48.2 °F 72% 30.09 in 10.0 mi SE 5.8 mph - N/A Rain Light Rain
2:23 PM 57.2 °F - 48.2 °F 72% 30.09 in 10.0 mi SE 5.8 mph - N/A   Overcast
2:31 PM 57.2 °F - 48.2 °F 72% 30.09 in 10.0 mi ESE 4.6 mph - N/A   Overcast
2:55 PM 58.5 °F - 49.5 °F 72% 30.10 in 10.0 mi Calm Calm - 0.00 in   Mostly Cloudy
3:02 PM 59.0 °F - 50.0 °F 72% 30.10 in 10.0 mi Calm Calm - N/A   Overcast
3:39 PM 57.2 °F - 50.0 °F 77% 30.10 in 10.0 mi Calm Calm - N/A Rain Light Rain
3:47 PM 57.2 °F - 51.8 °F 82% 30.10 in 4.0 mi South 3.5 mph - N/A Rain Light Rain
3:49 PM 57.2 °F - 51.8 °F 82% 30.10 in 3.0 mi South 4.6 mph - N/A Rain Rain
3:55 PM 56.5 °F - 52.2 °F 85% 30.09 in 4.0 mi SSE 4.6 mph - 0.03 in Rain Light Rain
3:57 PM 57.2 °F - 51.8 °F 82% 30.09 in 5.0 mi SSE 4.6 mph - N/A Rain Light Rain
4:02 PM 57.2 °F - 51.8 °F 82% 30.09 in 10.0 mi SE 3.5 mph - N/A Rain Light Rain
4:03 PM 57.2 °F - 51.8 °F 82% 30.09 in 10.0 mi Calm Calm - N/A   Scattered Clouds
4:55 PM 55.9 °F - 52.9 °F 89% 30.08 in 10.0 mi SSE 8.1 mph - 0.00 in   Mostly Cloudy
5:55 PM 55.6 °F - 53.2 °F 92% 30.09 in 10.0 mi SSE 5.8 mph - N/A   Mostly Cloudy
6:15 PM 55.4 °F - 53.6 °F 94% 30.09 in 10.0 mi South 4.6 mph - N/A   Mostly Cloudy
6:39 PM 57.2 °F - 55.4 °F 94% 30.09 in 10.0 mi SSE 5.8 mph - N/A Rain Light Rain
6:52 PM 57.2 °F - 55.4 °F 94% 30.10 in 10.0 mi Calm Calm - N/A   Overcast
6:55 PM 56.5 °F - 54.9 °F 94% 30.09 in 10.0 mi Calm Calm - 0.01 in   Overcast
7:21 PM 57.2 °F - 55.4 °F 94% 30.10 in 10.0 mi Calm Calm - N/A   Overcast
7:28 PM 57.2 °F - 55.4 °F 94% 30.10 in 10.0 mi Calm Calm - N/A   Overcast
7:38 PM 57.2 °F - 55.4 °F 94% 30.10 in 10.0 mi Calm Calm - N/A   Overcast
7:55 PM 56.8 °F - 55.6 °F 96% 30.10 in 10.0 mi Calm Calm - N/A   Overcast
8:29 PM 57.2 °F - 55.4 °F 94% 30.10 in 10.0 mi SSW 5.8 mph - N/A   Overcast
8:37 PM 57.2 °F - 55.4 °F 94% 30.11 in 10.0 mi SSW 4.6 mph - N/A   Overcast
8:38 PM 57.2 °F - 55.4 °F 94% 30.11 in 10.0 mi SSW 4.6 mph - N/A   Overcast
8:42 PM 57.2 °F - 55.4 °F 94% 30.11 in 10.0 mi SSW 5.8 mph - N/A   Overcast
8:45 PM 57.2 °F - 55.4 °F 94% 30.11 in 10.0 mi SSW 5.8 mph - N/A   Overcast
8:46 PM 57.2 °F - 55.4 °F 94% 30.11 in 10.0 mi SSW 4.6 mph - N/A   Overcast
8:55 PM 58.3 °F - 55.0 °F 89% 30.12 in 10.0 mi SW 3.5 mph - N/A   Overcast
9:05 PM 57.2 °F - 55.4 °F 94% 30.12 in 10.0 mi West 3.5 mph - N/A   Overcast
9:21 PM 57.2 °F - 55.4 °F 94% 30.12 in 10.0 mi SSW 3.5 mph - N/A   Overcast
9:33 PM 57.2 °F - 55.4 °F 94% 30.12 in 10.0 mi WSW 3.5 mph - N/A   Overcast
9:55 PM 57.6 °F - 55.2 °F 92% 30.12 in 10.0 mi Calm Calm - N/A   Overcast
10:39 PM 57.2 °F - 55.4 °F 94% 30.11 in 10.0 mi South 5.8 mph - N/A   Overcast
10:51 PM 59.0 °F - 55.4 °F 88% 30.10 in 10.0 mi South 6.9 mph - N/A   Overcast
10:55 PM 58.5 °F - 56.1 °F 92% 30.09 in 10.0 mi South 6.9 mph - N/A   Overcast
11:55 PM 59.2 °F - 56.8 °F 92% 30.09 in 10.0 mi South 4.6 mph - N/A   Overcast